STARLINK-2565 (48280 NORAD) Tracking and Keplerian Element Data

This shows tracking and keplerian element data for the satellite.

Feedback or suggestion? Click here.




ElementValue
Catalog48280
NameSTARLINK-2565
Epoch Orbit1541
Epoch Day214.33037719
Epoch Year2021
RAAN80.0309
Inclination53.0552
Eccentricity0.0001752
Argument of Perigee97.6247
Mean Anonmoly262.4941
Mean Motion15.06399284
Decay Rate-8.15E-06
L11 48280U 21036E 21214.33037719 -.00000815 00000-0 -35833-4 0 9999
L22 48280 53.0552 80.0309 0001752 97.6247 262.4941 15.06399284 15410

Live tracking and technical data element details for STARLINK-2565 (NORAD 48280). STARLINK-2565 can be tracked NOW for your location showing map with azimuth and elevation plus other details from your city location.

Track the satellite on the map from your city or location and see movement details for azimuth, elevation, latitude, longitude, range, height, and movement on the map or in text.







IsCatalogInMostPopularTable: catalog: 48280, numindb: 33
Update: records affected: 1



GetName: 48280 STARLINK-2565

Hit Count: updated at: Tue, 03 Aug 2021 23:10:07 GMT